Regional Weather Roundup
Issued by NWS

Home | Current Version | Previous Version | Graphics & Text | Print | Product List | Glossary On
Versions: 1 2 3 4 5 6 7 8 9 10 11 12 13 14 15 16 17 18 19 20 21 22 23 24 25 26 27 28 29 30 31 32 33 34 35 36 37 38 39 40 41 42 43 44 45 46 47 48 49 50
000
ASUS45 KSLC 201110
RWRUT

UTAH REGIONAL WEATHER ROUNDUP
NATIONAL WEATHER SERVICE SALT LAKE CITY UT
500 AM MDT MON OCT 20 2014

UTZ001>011-023>025-201200-

NORTHERN UTAH

CITY           SKY/WX    TMP DP  RH WIND       PRES   REMARKS
BRIGHAM CITY   CLEAR     44  34  69 CALM      30.04S
HILL AFB       CLEAR     51  31  47 E16       30.05S
LOGAN          CLEAR     38  32  79 CALM      30.06S
OGDEN          CLEAR     50  33  52 S9        30.03S
PROVO AIRPORT  CLEAR     43  36  75 CALM      30.07R
SALT LAKE CITY CLEAR     48  39  71 E7        30.03S
VERNAL         CLEAR     37  31  78 SW5       30.14R WCI  33
WENDOVER       CLEAR     46  34  61 E3        30.03S
HEBER CITY     CLEAR     32  30  93 CALM      30.14R
WEST JORDAN    CLEAR     48  39  71 S7        30.05S

$$

UTZ012>022-026-027-201200-

SOUTHERN/CENTRAL UTAH

CITY           SKY/WX    TMP DP  RH WIND       PRES   REMARKS
BLANDING       CLEAR     46  39  74 N6        30.24R
BRYCE CANYON   CLEAR     30  28  92 CALM      30.23S
CEDAR CITY     CLEAR     48  37  65 CALM      30.08F
DELTA          PTCLDY    46  34  63 SE5       30.06R
HANKSVILLE     MOCLDY    46  32  57 CALM      30.11S
MILFORD        CLEAR     39  31  72 S6        30.07R WCI  35
MOAB/CYNLANDS  CLOUDY    56  40  55 CALM      30.08R
PRICE          CLEAR     47  31  53 NE9       30.14S
ST GEORGE      SUNNY     61  34  36 CALM      29.98S
KANAB            N/A     50  34  53 NW12      30.12R

$$

REGIONAL REPORTS     COLORADO/ARIZONA

CITY           SKY/WX    TMP DP  RH WIND       PRES   REMARKS
CRAIG, CO      CLEAR     33  28  81 CALM      30.20R
GRAND JUNCTION MOCLDY    47  34  60 CALM      30.12R
RIFLE          CLEAR     41  34  76 E5        30.18R
MONTROSE       CLEAR     42  37  82 SE5       30.19R
CORTEZ         CLEAR     40  38  93 NE6       30.18S
PAGE, AZ       NOT AVBL
GRAND CANYON   CLEAR     40  35  83 NE3       30.17S
KINGMAN        CLEAR     56  43  61 SE10      29.97S
FLAGSTAFF      CLEAR     35  31  85 CALM      30.17S

$$

REGIONAL REPORTS    NEVADA/IDAHO/WYOMING

CITY           SKY/WX    TMP DP  RH WIND       PRES   REMARKS
LAS VEGAS, NV  CLEAR     67  36  31 S8        29.85S
ELY            CLEAR     38  28  67 S13       30.11S WCI  30
ELKO           CLEAR     42  28  57 NE7       30.01S
POCATELLO, ID  CLEAR     34  30  85 N3        30.03F
BURLEY         PTCLDY    43  33  68 NE5       29.97S
EVANSTON, WY   PTCLDY    42  27  55 SE3       30.18S
ROCK SPRINGS   MOCLDY    41  28  60 SE6       30.18S
KEMMERER       PTCLDY    36  28  75 N13       30.20S WCI  27

$$



USA.gov is the U.S. government's official web portal to all federal, state and local government web resources and services.